Date String (YYYY-MM-DD hh:mm:ss) UTC,Instrument flags,absolute air pressure of the measurement (hPa),sample flow rate (lpm),inlet stack bypass flow (lpm),air temperature of the measurement (°C),ambient temperature measured by the external sensor (°C),aerosol sample conditioner tube jacket temperature (°C),OPC LED temperature (°C),internal box temperature (°C),relative humidity of the measurement (%),span deviation,mass concentration of particles derived from Lorenz-Mie calculation of OPC scattering (μg/m³),mass concentration of particles derived from Lorenz-Mie calculation of OPC scattering (μg/m³),mass concentration of particles derived from Lorenz-Mie calculation of OPC scattering (μg/m³)
DateTimeUTC,F1_M11,P_M11,Q1_M11,Q2_M11,T1_M11,T2_M11,T3_M11,T4_M11,T5_M11,U1_M11,ZSPAN_M11,X0_M11,X2_M11,X1_M11
2024-02-03 02:00:00,SystemResetWarning,0814.3,5.00,000.00,025.3,024.5,000.0,033.7,027.0,13.0,0003.1,0025.67,0008.50,0007.27
2024-02-03 02:01:00,SystemResetWarning,0814.3,5.01,000.00,025.3,024.5,000.0,033.7,027.1,13.0,0002.4,0027.92,0008.53,0007.28
2024-02-03 02:02:00,SystemResetWarning,0814.3,5.01,000.00,025.3,024.5,000.0,033.7,027.0,13.2,0002.0,0026.90,0008.56,0007.30
2024-02-03 02:03:00,SystemResetWarning,0814.3,5.00,000.00,025.3,024.5,000.0,033.7,027.1,13.4,0002.0,0027.17,0008.57,0007.31
2024-02-03 02:04:00,SystemResetWarning,0814.3,5.00,000.00,025.3,024.5,000.0,033.7,027.1,13.4,0002.3,0027.58,0008.49,0007.30
2024-02-03 02:05:00,SystemResetWarning,0814.3,4.99,000.00,025.3,024.5,000.0,033.7,027.0,13.3,0001.7,0029.31,0008.52,0007.26
2024-02-03 02:06:00,SystemResetWarning,0814.3,4.99,000.00,025.3,024.5,000.0,033.7,027.0,13.3,0002.0,0029.38,0008.50,0007.23
2024-02-03 02:07:00,SystemResetWarning,0814.3,4.99,000.00,025.3,024.5,000.0,033.7,027.0,13.4,0002.0,0028.65,0008.45,0007.18
2024-02-03 02:08:00,SystemResetWarning,0814.3,5.00,000.00,025.3,024.5,000.0,033.7,027.0,14.1,0002.8,0031.21,0008.47,0007.14
2024-02-03 02:09:00,SystemResetWarning,0814.3,5.00,000.00,025.3,024.5,000.0,033.7,027.0,14.1,0003.2,0031.08,0008.41,0007.08
2024-02-03 02:10:00,SystemResetWarning,0814.3,4.99,000.00,025.3,024.5,000.0,033.7,027.0,13.9,0003.3,0030.28,0008.27,0006.99
2024-02-03 02:11:00,SystemResetWarning,0814.3,5.00,000.00,025.3,024.5,000.0,033.7,027.0,14.2,0003.3,0029.55,0008.17,0006.92
2024-02-03 02:12:00,SystemResetWarning,0814.3,5.01,000.00,025.3,024.5,000.0,033.7,027.0,14.6,0003.0,0026.56,0008.04,0006.83
2024-02-03 02:13:00,SystemResetWarning,0814.3,5.00,000.00,025.3,024.5,000.0,033.7,027.0,14.6,0003.2,0025.29,0007.91,0006.74
2024-02-03 02:14:00,SystemResetWarning,0814.3,4.98,000.00,025.3,024.5,000.0,033.7,027.0,14.5,0003.0,0022.96,0007.74,0006.62
2024-02-03 02:15:00,SystemResetWarning,0814.3,5.00,000.00,025.3,024.5,000.0,033.7,027.0,14.6,0002.9,0021.83,0007.64,0006.51
2024-02-03 02:16:00,SystemResetWarning,0814.3,5.00,000.00,025.3,024.5,000.0,033.7,027.0,14.6,0003.7,0020.70,0007.53,0006.45
2024-02-03 02:17:00,SystemResetWarning,0814.3,5.01,000.00,025.3,024.5,000.0,033.7,027.0,14.7,0003.8,0020.24,0007.43,0006.37
2024-02-03 02:18:00,SystemResetWarning,0814.2,5.00,000.00,025.3,024.5,000.0,033.7,027.0,14.7,0003.5,0020.09,0007.34,0006.30
2024-02-03 02:19:00,SystemResetWarning,0814.2,4.99,000.00,025.3,024.5,000.0,033.7,027.0,14.8,0003.1,0018.83,0007.26,0006.23
2024-02-03 02:20:00,SystemResetWarning,0814.2,5.00,000.00,025.3,024.5,000.0,033.6,027.0,15.0,0003.0,0018.50,0007.19,0006.16
2024-02-03 02:21:00,SystemResetWarning,0814.2,5.01,000.00,025.3,024.5,000.0,033.7,027.0,15.3,0002.5,0019.11,0007.16,0006.13
2024-02-03 02:22:00,SystemResetWarning,0814.2,5.01,000.00,025.3,024.5,000.0,033.7,027.0,15.3,0002.1,0019.83,0007.17,0006.12
2024-02-03 02:23:00,SystemResetWarning,0814.2,4.99,000.00,025.2,024.5,000.0,033.6,027.0,15.4,0001.8,0020.22,0007.18,0006.10
2024-02-03 02:24:00,SystemResetWarning,0814.2,4.99,000.00,025.2,024.5,000.0,033.6,027.0,15.5,0001.9,0019.64,0007.16,0006.06
2024-02-03 02:25:00,SystemResetWarning,0814.1,5.00,000.00,025.2,024.5,000.0,033.6,027.0,15.9,0001.7,0020.27,0007.18,0006.04
2024-02-03 02:26:00,SystemResetWarning,0814.1,5.01,000.00,025.2,024.5,000.0,033.6,027.0,16.2,0001.6,0020.26,0007.12,0006.00
2024-02-03 02:27:00,SystemResetWarning,0814.1,5.01,000.00,025.2,024.5,000.0,033.6,027.0,16.3,0001.7,0020.00,0007.06,0005.95
2024-02-03 02:28:00,SystemResetWarning,0814.2,5.00,000.00,025.2,024.5,000.0,033.6,027.0,16.4,0001.8,0020.27,0007.00,0005.90
2024-02-03 02:29:00,SystemResetWarning,0814.2,5.00,000.00,025.2,024.5,000.0,033.6,027.0,16.5,0001.6,0020.05,0006.96,0005.85
2024-02-03 02:30:00,SystemResetWarning,0814.2,5.00,000.00,025.2,024.4,000.0,033.6,027.0,16.6,0001.4,0019.84,0006.91,0005.79
2024-02-03 02:31:00,SystemResetWarning,0814.1,5.00,000.00,025.2,024.4,000.0,033.6,026.9,16.7,0001.1,0019.37,0006.79,0005.71
2024-02-03 02:32:00,SystemResetWarning,0814.2,5.00,000.00,025.2,024.4,000.0,033.6,026.9,16.7,0001.6,0019.18,0006.69,0005.64
2024-02-03 02:33:00,SystemResetWarning,0814.2,5.00,000.00,025.2,024.4,000.0,033.6,026.9,16.7,0001.5,0018.47,0006.59,0005.56
2024-02-03 02:34:00,SystemResetWarning,0814.2,5.00,000.00,025.2,024.4,000.0,033.6,026.9,16.8,0001.9,0017.42,0006.49,0005.49
2024-02-03 02:35:00,SystemResetWarning,0814.2,5.00,000.00,025.2,024.4,000.0,033.6,026.9,16.9,0001.8,0017.21,0006.41,0005.42
2024-02-03 02:36:00,SystemResetWarning,0814.2,5.00,000.00,025.2,024.4,000.0,033.6,026.9,17.0,0002.2,0016.85,0006.35,0005.37
2024-02-03 02:37:00,SystemResetWarning,0814.2,5.00,000.00,025.2,024.4,000.0,033.6,026.9,17.1,0002.4,0017.03,0006.30,0005.33
2024-02-03 02:38:00,SystemResetWarning,0814.2,5.00,000.00,025.2,024.4,000.0,033.6,026.9,17.2,0002.7,0017.16,0006.22,0005.27
2024-02-03 02:39:00,SystemResetWarning,0814.2,5.00,000.00,025.2,024.4,000.0,033.6,026.9,17.3,0002.3,0017.16,0006.15,0005.21
2024-02-03 02:40:00,SystemResetWarning,0814.2,4.99,000.00,025.2,024.4,000.0,033.6,026.9,17.4,0002.1,0018.13,0006.14,0005.18
2024-02-03 02:41:00,SystemResetWarning,0814.2,5.00,000.00,025.2,024.4,000.0,033.6,026.8,17.5,0002.5,0018.53,0006.09,0005.16
2024-02-03 02:42:00,SystemResetWarning,0814.2,5.00,000.00,025.2,024.4,000.0,033.6,026.8,17.5,0002.7,0018.73,0006.04,0005.13
2024-02-03 02:43:00,SystemResetWarning,0814.2,5.00,000.00,025.1,024.4,000.0,033.5,026.8,17.6,0002.4,0018.17,0006.04,0005.11
2024-02-03 02:44:00,SystemResetWarning,0814.2,5.01,000.00,025.1,024.3,000.0,033.5,026.8,17.6,0002.0,0017.31,0006.01,0005.09
2024-02-03 02:45:00,SystemResetWarning,0814.2,5.00,000.00,025.1,024.3,000.0,033.5,026.8,17.6,0002.0,0016.72,0005.97,0005.07
2024-02-03 02:46:00,SystemResetWarning,0814.2,5.01,000.00,025.1,024.3,000.0,033.5,026.8,17.6,0002.1,0016.91,0005.92,0005.04
2024-02-03 02:47:00,SystemResetWarning,0814.2,5.00,000.00,025.1,024.3,000.0,033.5,026.8,17.7,0002.2,0016.91,0005.84,0005.01
2024-02-03 02:48:00,SystemResetWarning,0814.2,4.99,000.00,025.1,024.3,000.0,033.5,026.8,17.7,0001.8,0016.62,0005.78,0004.98
2024-02-03 02:49:00,SystemResetWarning,0814.2,4.99,000.00,025.1,024.3,000.0,033.5,026.8,17.7,0001.7,0015.62,0005.77,0004.96
2024-02-03 02:50:00,SystemResetWarning,0814.1,5.00,000.00,025.1,024.3,000.0,033.5,026.8,17.6,0001.7,0015.28,0005.78,0004.95
2024-02-03 02:51:00,SystemResetWarning,0814.1,5.01,000.00,025.1,024.3,000.0,033.5,026.8,17.5,0001.8,0013.85,0005.76,0004.93
2024-02-03 02:52:00,SystemResetWarning,0814.1,5.00,000.00,025.1,024.3,000.0,033.5,026.8,17.5,0001.6,0013.11,0005.75,0004.91
2024-02-03 02:53:00,SystemResetWarning,0814.2,4.99,000.00,025.1,024.3,000.0,033.5,026.7,17.4,0001.3,0012.82,0005.81,0004.90
2024-02-03 02:54:00,SystemResetWarning,0814.2,5.00,000.00,025.1,024.3,000.0,033.5,026.7,17.4,0001.6,0012.74,0005.83,0004.91
2024-02-03 02:55:00,SystemResetWarning,0814.2,5.00,000.00,025.1,024.3,000.0,033.5,026.8,17.4,0001.3,0012.84,0005.88,0004.91
2024-02-03 02:56:00,SystemResetWarning,0814.2,5.00,000.00,025.1,024.3,000.0,033.5,026.8,17.4,0001.2,0013.23,0005.89,0004.92
2024-02-03 02:57:00,SystemResetWarning,0814.2,5.01,000.00,025.0,024.3,000.0,033.4,026.7,17.4,0001.2,0013.71,0005.90,0004.93
2024-02-03 02:58:00,SystemResetWarning,0814.2,5.00,000.00,025.0,024.2,000.0,033.4,026.7,17.5,0001.3,0014.10,0005.91,0004.94
2024-02-03 02:59:00,SystemResetWarning,0814.2,4.99,000.00,025.0,024.2,000.0,033.4,026.7,17.5,0001.4,0013.86,0005.91,0004.94
